Wind_Speed
30 29 21 18 17 19 22 28 23 28 32 38 41 34 25 25 24 22 18 23 21 16 14 19 21 13 11 13 11 0 11 23 26 25 25 21 20 20 21 20 17 17 14 14
32 31 23 22 18 19 21 31 31 30 32 31 37 40 45 26 26 24 21 22 18 14 15 16 16 19 13 11 11 7 9 20 25 25 23 24 25 25 24 22 20 14 16 16
31 30 27 26 21 20 20 26 33 34 30 34 34 34 33 32 30 28 24 27 24 18 18 20 17 20 15 12 8 7 1 15 26 27 24 26 27 26 25 24 23 21 20 19
33 30 30 28 26 24 22 24 29 33 38 34 39 35 37 40 40 31 29 28 23 25 16 21 14 16 17 11 9 6 3 2 18 26 27 27 29 29 28 27 24 23 20 19
35 32 31 31 31 28 25 25 29 33 36 36 38 38 36 43 42 32 33 22 26 28 20 12 14 14 7 7 10 6 4 1 6 20 27 29 28 29 29 27 27 25 23 19
39 36 32 35 34 34 27 29 30 35 34 32 36 40 38 35 38 36 32 32 34 36 32 25 21 15 7 9 10 9 6 6 6 8 17 26 27 26 25 24 23 23 23 20
42 37 36 37 37 36 31 30 30 33 35 31 31 33 32 36 37 34 35 35 37 35 33 31 26 15 10 7 10 9 10 10 10 8 11 16 23 24 25 25 25 23 23 20
42 39 41 39 38 37 37 35 32 36 37 32 30 32 31 32 31 31 28 30 28 29 29 28 27 7 9 10 8 14 14 13 16 12 11 13 16 20 22 24 26 25 24 22
43 43 39 40 39 39 39 40 39 38 39 34 32 32 27 28 26 28 27 27 25 25 23 27 13 7 11 9 3 8 9 11 17 15 14 13 14 16 18 22 24 26 25 25
40 38 39 38 38 41 41 42 43 42 40 35 32 24 23 24 21 24 21 22 28 26 25 24 11 10 11 1 3 2 4 10 18 17 16 12 12 12 14 17 21 21 22 23
35 35 34 35 40 41 38 40 41 40 38 35 28 18 21 19 14 16 15 20 23 27 20 14 15 14 11 8 4 8 8 12 16 22 24 20 17 14 10 10 14 16 22 27
33 30 28 34 36 36 34 35 35 34 36 28 17 18 16 10 5 7 14 16 15 23 22 13 8 9 11 10 12 14 14 15 19 24 26 27 28 24 21 18 16 16 18 21
31 29 29 31 34 35 32 31 33 33 28 19 13 16 15 16 23 25 22 23 18 21 17 5 4 8 10 8 10 13 14 21 30 28 33 38 35 31 27 24 23 19 18 19
32 30 30 32 36 32 26 25 27 26 20 11 12 16 15 23 34 37 27 22 21 18 12 5 5 6 8 15 10 9 10 12 18 23 27 31 35 36 34 32 28 24 22 22
33 32 29 32 30 26 23 25 26 23 15 11 17 13 20 26 28 25 21 22 15 12 3 8 11 10 14 15 14 9 6 8 12 16 20 24 28 30 33 34 31 28 27 24
30 30 29 26 25 24 26 30 30 20 17 14 15 22 26 23 25 21 25 22 12 5 5 13 16 12 10 12 19 18 12 8 9 11 13 18 21 26 29 30 31 34 31 27
26 24 24 21 20 18 17 21 28 24 18 19 21 23 28 27 26 24 21 18 16 9 10 9 8 9 9 12 16 19 19 17 12 11 11 12 14 19 25 27 28 30 30 31
25 20 19 15 14 16 11 9 21 28 30 26 23 26 25 26 29 21 16 21 14 12 7 3 4 9 18 19 17 16 15 18 19 18 16 15 15 17 17 23 28 29 27 30
24 17 18 13 15 16 17 16 17 18 17 18 17 17 18 21 25 26 22 13 10 14 16 12 12 13 13 16 23 24 19 20 21 19 17 19 20 19 20 19 23 24 28 33
21 14 16 15 21 22 22 23 22 17 13 8 7 7 6 13 15 17 24 23 23 18 19 22 21 24 20 24 24 27 24 21 20 19 18 18 19 21 23 24 24 24 29 33
18 20 21 22 21 21 21 20 19 19 12 10 10 9 6 7 8 15 19 17 24 30 29 28 29 34 31 31 28 26 25 23 21 18 17 18 18 17 17 23 26 28 29 30
18 21 26 28 23 24 16 17 16 14 12 8 6 5 2 6 8 10 18 23 27 34 37 33 31 30 28 27 28 29 26 27 23 19 20 20 20 21 22 22 20 24 31 33
25 26 28 29 28 18 21 17 18 19 16 13 6 2 9 10 12 12 12 15 20 20 26 25 22 24 27 26 27 29 26 29 29 27 27 27 26 26 27 27 26 26 25 26
31 30 31 32 27 24 20 21 17 13 11 8 11 11 12 12 12 13 17 19 21 23 23 20 21 22 24 25 28 29 28 29 26 26 28 30 29 29 30 31 32 34 32 31
36 34 35 31 30 25 22 20 15 10 12 16 14 15 13 13 15 17 20 22 24 24 25 24 23 23 23 25 29 31 29 29 29 31 31 31 35 35 33 34 34 34 36 38
38 36 32 32 30 31 27 26 25 23 21 22 20 21 18 17 18 20 20 22 23 24 27 28 28 28 28 29 32 34 36 37 40 42 37 37 37 37 38 40 40 40 41 43
Wind_Direction
279 278 277 281 279 275 269 261 268 264 264 259 252 251 272 293 303 297 310 319 321 334 346 354 347 334 287 300 345 317 205 203 204 212 208 201 210 205 202 216 221 232 233 255
274 275 281 275 269 260 254 246 258 256 263 261 261 263 269 278 299 290 287 303 310 323 317 330 351 340 313 288 335 15 195 205 207 213 214 205 212 212 210 210 218 216 236 249
269 273 274 272 272 265 255 251 248 252 255 264 269 270 277 283 292 278 289 293 309 308 301 305 318 329 317 283 305 349 351 204 207 215 219 214 215 220 223 224 226 236 248 247
266 268 272 274 271 268 260 252 253 249 248 259 266 270 272 284 292 293 293 293 302 304 287 289 300 311 316 268 251 318 16 205 215 214 221 223 221 223 228 234 238 242 250 249
266 267 268 273 270 268 264 255 254 251 246 245 254 263 265 282 285 286 289 287 303 291 278 305 288 307 330 285 253 258 325 274 221 222 222 226 229 229 235 243 247 245 243 239
261 263 264 267 272 269 267 261 257 260 257 248 245 256 264 267 272 278 277 272 287 285 277 273 298 285 297 242 260 254 271 303 257 226 231 227 228 230 232 234 235 234 241 242
259 262 267 267 268 270 268 263 262 263 262 250 251 251 255 257 263 268 276 271 274 272 270 274 282 285 297 271 229 221 259 266 273 259 236 233 234 230 230 229 228 231 236 241
254 256 255 262 267 269 271 267 262 259 259 256 252 250 251 260 262 270 268 271 271 265 269 274 274 268 289 283 242 229 230 251 265 254 245 239 238 238 237 236 234 232 232 236
249 251 256 259 262 263 261 264 259 257 259 260 257 254 253 260 270 268 262 260 260 255 255 265 271 280 278 247 225 215 229 251 253 266 245 240 240 241 240 236 235 236 234 234
248 251 255 262 263 260 259 259 263 262 261 259 258 260 257 256 251 255 260 254 252 247 244 253 264 298 276 114 49 333 293 277 268 254 256 231 231 237 243 248 243 236 231 223
247 249 252 252 253 257 258 259 260 262 264 262 259 254 248 247 246 261 253 230 234 238 232 255 277 320 298 320 299 336 326 291 278 266 244 237 237 236 243 262 260 250 238 221
241 246 249 253 256 257 256 258 258 258 256 258 258 245 235 199 217 257 270 229 229 227 228 270 288 340 332 314 293 283 288 285 262 260 244 244 244 246 256 273 284 270 257 245
237 241 243 247 250 251 250 249 252 253 256 252 232 220 203 208 204 205 233 216 201 198 220 260 274 310 344 337 287 273 240 239 250 250 248 244 245 251 258 265 277 272 267 270
236 238 243 246 250 258 262 259 258 261 262 241 196 185 209 221 222 218 232 201 175 172 185 220 273 325 341 346 320 281 263 247 243 242 241 242 244 244 247 251 254 254 262 266
236 239 245 250 260 263 263 261 256 254 246 190 175 192 211 229 224 221 219 190 177 202 213 311 305 308 317 331 320 317 292 279 266 256 249 239 237 242 244 247 252 253 253 262
239 242 245 248 249 254 249 242 248 239 226 195 201 220 224 227 223 217 200 212 209 159 288 305 298 308 317 315 322 324 318 294 273 272 267 256 248 243 245 246 246 249 254 253
236 243 243 245 247 253 257 239 230 220 205 212 222 222 217 227 229 208 208 213 226 222 230 262 278 302 331 338 321 317 313 306 294 275 269 268 262 254 250 246 246 246 244 243
230 231 239 238 240 244 235 194 199 191 191 195 213 219 214 222 220 218 230 205 231 250 271 272 305 326 334 326 311 306 309 307 293 281 277 271 265 262 263 249 245 247 241 229
217 221 225 221 238 202 154 121 115 135 161 183 198 211 212 217 216 223 243 192 227 269 284 289 303 319 328 320 320 316 307 307 307 304 294 279 271 265 266 262 251 246 241 231
210 200 213 188 199 170 146 141 131 130 139 132 118 150 163 232 246 260 266 256 247 267 274 292 304 316 315 321 319 315 311 302 299 296 300 295 277 267 262 257 253 252 247 240
202 194 196 190 190 186 175 150 146 146 153 133 137 139 158 184 210 223 212 226 243 253 269 283 292 300 311 313 309 309 306 299 298 299 299 297 294 288 272 260 255 253 251 250
195 202 198 202 207 190 162 165 176 161 146 144 121 161 177 257 257 226 215 227 231 241 251 263 287 293 294 295 295 302 303 295 291 292 294 293 292 288 284 277 267 257 253 253
196 201 198 206 210 181 171 182 182 148 145 153 186 305 252 290 279 276 276 266 264 269 270 269 274 282 281 281 286 294 296 293 295 298 295 290 284 281 278 278 277 272 266 254
199 203 198 210 213 212 202 200 177 176 159 205 219 230 232 266 275 282 280 273 277 279 283 290 293 291 289 288 287 290 290 290 292 295 294 292 288 284 277 272 272 274 275 274
202 198 203 206 215 217 206 206 201 194 233 246 235 243 234 239 256 273 277 283 292 299 300 299 298 295 293 292 290 292 293 292 293 290 287 284 286 287 284 281 277 272 270 269
204 202 203 207 214 220 208 209 212 216 226 238 243 240 238 234 246 256 265 272 281 282 286 292 294 296 297 293 290 290 290 287 283 282 283 285 284 280 278 277 276 275 275 274
Height
10958 10958 10964 10965 10964 10961 10961 10960 10962 10962 10960 10962 10963 10965 10965 10969 10968 10965 10962 10960 10959 10958 10958 10958 10959 10959 10958 10956 10952 10948 10950 10953 10959 10962 10965 10971 10973 10975 10978 10981 10984 10987 10989 10991
10952 10951 10957 10959 10961 10961 10960 10959 10958 10959 10956 10956 10958 10961 10961 10964 10965 10963 10960 10958 10957 10956 10955 10956 10957 10957 10957 10956 10953 10950 10949 10952 10956 10958 10962 10968 10971 10973 10975 10978 10981 10984 10987 10989
10947 10948 10949 10951 10955 10955 10956 10956 10955 10956 10954 10952 10955 10957 10954 10957 10958 10960 10957 10955 10955 10956 10955 10954 10955 10954 10956 10956 10953 10952 10950 10950 10954 10956 10958 10964 10967 10971 10973 10976 10978 10981 10983 10985
10939 10943 10943 10945 10947 10949 10951 10951 10949 10952 10950 10953 10950 10953 10950 10951 10949 10952 10952 10951 10951 10951 10954 10953 10952 10950 10952 10953 10952 10952 10951 10949 10950 10953 10955 10959 10963 10967 10969 10971 10974 10976 10978 10981
10933 10937 10938 10938 10938 10942 10944 10945 10944 10943 10946 10952 10949 10947 10951 10947 10944 10947 10947 10945 10944 10944 10947 10951 10951 10949 10950 10950 10949 10949 10950 10949 10949 10950 10952 10955 10958 10963 10965 10967 10969 10972 10975 10978
10925 10928 10932 10931 10932 10933 10939 10937 10938 10935 10939 10945 10947 10947 10947 10944 10939 10942 10943 10941 10939 10938 10941 10948 10952 10949 10947 10949 10947 10949 10948 10947 10947 10948 10950 10952 10954 10957 10960 10963 10966 10968 10969 10972
10918 10923 10924 10923 10923 10925 10930 10932 10933 10931 10931 10937 10940 10941 10942 10938 10938 10938 10936 10936 10936 10932 10933 10939 10948 10948 10945 10948 10945 10944 10949 10946 10944 10945 10947 10950 10952 10954 10956 10958 10960 10963 10965 10967
10911 10915 10914 10916 10917 10917 10918 10921 10924 10922 10924 10930 10934 10934 10936 10934 10936 10933 10931 10928 10927 10927 10928 10933 10942 10943 10943 10944 10947 10943 10943 10943 10943 10942 10944 10946 10948 10950 10952 10954 10955 10958 10960 10963
10901 10904 10908 10908 10910 10910 10911 10911 10913 10916 10916 10920 10924 10926 10932 10931 10931 10927 10924 10924 10924 10924 10927 10930 10937 10938 10941 10941 10939 10939 10938 10938 10939 10940 10943 10944 10945 10947 10948 10949 10950 10952 10956 10959
10895 10899 10900 10901 10902 10900 10903 10903 10903 10905 10908 10913 10916 10922 10926 10923 10923 10922 10926 10926 10925 10926 10927 10929 10934 10938 10940 10936 10934 10935 10935 10936 10935 10937 10940 10941 10942 10944 10945 10946 10947 10949 10952 10955
10891 10892 10894 10893 10890 10891 10895 10895 10896 10897 10899 10903 10910 10917 10917 10920 10921 10920 10918 10917 10919 10921 10924 10928 10933 10935 10936 10935 10932 10932 10932 10932 10932 10932 10936 10937 10939 10940 10941 10943 10945 10947 10948 10950
10882 10886 10888 10884 10884 10885 10887 10887 10888 10890 10891 10898 10907 10909 10913 10918 10913 10909 10916 10918 10918 10920 10924 10925 10927 10929 10930 10928 10927 10928 10928 10928 10931 10929 10928 10930 10934 10936 10938 10940 10942 10943 10945 10947
10876 10879 10880 10878 10878 10878 10881 10882 10882 10884 10889 10896 10901 10903 10909 10910 10905 10904 10916 10914 10914 10916 10921 10919 10919 10921 10924 10924 10923 10923 10926 10930 10925 10924 10923 10924 10927 10930 10932 10935 10937 10938 10939 10940
10871 10872 10873 10872 10869 10873 10878 10880 10880 10882 10887 10893 10898 10901 10901 10899 10894 10900 10905 10907 10910 10913 10914 10914 10914 10914 10915 10917 10917 10916 10915 10916 10917 10917 10918 10918 10918 10921 10923 10925 10928 10931 10933 10934
10864 10866 10868 10867 10870 10871 10873 10873 10874 10878 10884 10891 10895 10896 10892 10891 10895 10902 10904 10907 10908 10908 10910 10910 10909 10906 10906 10907 10910 10908 10906 10906 10906 10907 10908 10910 10911 10913 10914 10915 10918 10921 10924 10927
10859 10862 10863 10866 10867 10869 10867 10865 10866 10872 10879 10886 10891 10889 10889 10892 10896 10899 10902 10903 10906 10909 10909 10908 10908 10905 10901 10900 10901 10902 10902 10902 10901 10901 10901 10901 10903 10904 10905 10907 10910 10911 10915 10920
10853 10856 10860 10862 10862 10862 10859 10858 10860 10865 10870 10877 10878 10881 10885 10888 10890 10897 10900 10902 10903 10903 10904 10904 10904 10903 10901 10899 10899 10898 10897 10898 10897 10897 10896 10896 10895 10896 10896 10899 10901 10902 10905 10909
10849 10852 10855 10857 10859 10859 10856 10853 10853 10857 10862 10866 10871 10875 10881 10883 10887 10892 10896 10899 10899 10898 10897 10897 10900 10902 10898 10896 10897 10896 10894 10892 10891 10890 10890 10891 10891 10891 10891 10893 10892 10893 10898 10902
10846 10849 10852 10857 10859 10857 10853 10853 10855 10858 10861 10865 10871 10877 10882 10883 10885 10890 10893 10895 10894 10893 10894 10894 10896 10895 10891 10893 10894 10891 10888 10887 10884 10882 10881 10884 10886 10886 10887 10887 10887 10888 10892 10893
10842 10847 10851 10854 10855 10855 10854 10854 10857 10861 10863 10864 10868 10872 10875 10877 10880 10885 10887 10887 10887 10888 10888 10888 10889 10888 10888 10888 10887 10886 10885 10883 10880 10876 10876 10876 10877 10877 10878 10879 10880 10880 10882 10885
10840 10843 10846 10848 10850 10852 10854 10857 10860 10860 10862 10864 10865 10866 10868 10872 10874 10876 10877 10880 10881 10881 10882 10882 10882 10880 10880 10881 10880 10880 10879 10878 10875 10873 10872 10870 10870 10870 10871 10870 10870 10871 10872 10874
10836 10841 10842 10843 10847 10853 10855 10857 10857 10859 10861 10863 10866 10868 10870 10871 10871 10872 10873 10875 10874 10874 10874 10876 10877 10875 10874 10873 10870 10871 10872 10871 10869 10867 10865 10864 10864 10864 10864 10863 10864 10863 10864 10865
10831 10834 10837 10840 10842 10848 10852 10854 10855 10857 10860 10863 10866 10866 10868 10867 10867 10866 10867 10868 10870 10871 10870 10871 10870 10870 10869 10868 10865 10865 10865 10863 10859 10857 10856 10856 10856 10857 10856 10856 10855 10854 10853 10854
10825 10829 10831 10833 10838 10842 10848 10852 10855 10857 10860 10862 10864 10865 10864 10863 10862 10862 10864 10865 10865 10866 10865 10863 10863 10863 10863 10861 10860 10860 10859 10855 10852 10850 10849 10847 10847 10848 10848 10848 10847 10845 10844 10843
10820 10823 10825 10828 10832 10838 10846 10849 10851 10852 10856 10859 10862 10862 10861 10860 10859 10859 10859 10857 10857 10857 10857 10858 10858 10858 10857 10855 10853 10852 10850 10846 10844 10843 10842 10842 10839 10840 10840 10839 10838 10837 10835 10833
10814 10819 10823 10825 10827 10830 10839 10845 10848 10850 10852 10854 10855 10855 10856 10857 10858 10858 10856 10855 10855 10855 10854 10853 10851 10849 10848 10848 10847 10845 10843 10839 10835 10833 10836 10834 10834 10833 10831 10829 10826 10824 10823 10822